Regional Weather Roundup
Issued by NWS

Home | Current Version | Previous Version | Graphics & Text | Print | Product List | Glossary On
Versions: 1 2 3 4 5 6 7 8 9 10 11 12 13 14 15 16 17 18 19 20 21 22 23 24 25 26 27 28 29 30 31 32 33 34 35 36 37 38 39 40 41 42 43 44 45 46 47 48 49 50
516
ASUS43 KDMX 121608
RWRIA

WEATHER ROUNDUP FOR IOWA
NATIONAL WEATHER SERVICE DES MOINES IA
1000 AM CST FRI FEB 12 2016

NOTE: "FAIR" INDICATES FEW OR NO CLOUDS BELOW 12,000 FEET WITH NO
SIGNIFICANT WEATHER AND/OR OBSTRUCTIONS TO VISIBILITY.

* - THESE STATIONS ARE NOT NWS STATIONS...THUS NOT UNDER NWS
QUALITY CONTROL.  THEY ALSO DO NOT REPORT WEATHER SUCH
AS PRECIPITATION OR FOG.

IAZ001>003-012>014-020>022-031>034-043>046-121700-
   NORTHWEST IOWA

CITY           SKY/WX    TMP DP  RH WIND       PRES   REMARKS
CARROLL *      SUNNY     16  10  79 N23G29    30.42R WCI  -2
CHEROKEE *     SUNNY     14   7  73 N17G26    30.46R HAZE    WCI  -3
DENISON *      SUNNY     18  10  73 N14       30.42R WCI   4
LE MARS *      CLOUDY    16  10  79 N14       30.49R WCI   1
ORANGE CITY *  SUNNY     12   9  85 N10       30.46R WCI  -1
SHELDON *      SUNNY     10   7  85 N15       30.44R WCI  -6
SIOUX CITY     PTSUNNY   21   9  59 N18G26    30.48R WCI   6
SPENCER        MOSUNNY   11   3  70 N18       30.44R BLWGSNOWWCI  -7
STORM LAKE *   CLOUDY    12   9  85 N23       30.43R WCI  -7
$$

IAZ055>058-069>071-079>083-090>094-121700-
   SOUTHWEST IOWA

CITY           SKY/WX    TMP DP  RH WIND       PRES   REMARKS
ATLANTIC *     PTSUNNY   21  12  68 N18       30.44R WCI   6
AUDUBON *      SUNNY     19  12  73 N14G20    30.42R WCI   6
CLARINDA *     CLOUDY    25  16  68 N20       30.45R WCI  11
COUNCIL BLFS * PTSUNNY   21  16  79 N15G24    30.44R WCI   8
CRESTON *      PTSUNNY   21  12  68 N18G25    30.40R WCI   6
HARLAN  *      MOSUNNY   19  12  73 N17G23    30.48R WCI   4
LAMONI         PTSUNNY   23  14  68 N21       30.37R WCI   8
RED OAK *      CLOUDY    23  14  68 N16G23    30.45R WCI  10
SHENANDOAH *   CLOUDY    25  18  74 N14G20    30.47R WCI  13
$$

IAZ047>049-059>061-072>074-084-121700-
   CENTRAL IOWA

CITY           SKY/WX    TMP DP  RH WIND       PRES   REMARKS
AMES           SUNNY     17   9  70 N22G31    30.39R WCI   0
ANKENY *       PTSUNNY   18  10  73 N20G33    30.40R WCI   1
BOONE *        PTSUNNY   16   7  67 N24       30.38S WCI  -3
CHARITON *     FLURRIES  21  12  68 N22G30    30.36R WCI   5
DES MOINES     MOSUNNY   20  11  68 N15       30.40R WCI   6
GRINNELL*      PTSUNNY   18  12  79 NW24G30   30.35R HAZE    WCI   0
KNOXVILLE *    CLOUDY    19  12  73 NW17      30.36R WCI   4
MARSHALLTOWN   MOSUNNY   17   9  70 NW18G30   30.36R WCI   1
NEWTON *       FLURRIES  18  12  79 NW21G30   30.37R WCI   1
PELLA *        PTSUNNY   21  14  73 NW18G24   30.38R WCI   6
$$

IAZ004>006-015-016-023>025-035-036-121700-
   NORTH CENTRAL IOWA

CITY           SKY/WX    TMP DP  RH WIND       PRES   REMARKS
ALGONA *       MOSUNNY   12   5  73 NW24G31   30.39R WCI  -8
CLARION *      CLOUDY    12   3  67 NW25      30.39R WCI  -8
ESTHERVILLE    SUNNY      9   0  67 N25       30.42R WCI -12
FORT DODGE *   MOSUNNY   14   3  62 N13G23    30.42R WCI   0
MASON CITY     SUNNY     11   3  70 NW25      30.37R WCI -10
FOREST CITY *  SUNNY     12   5  73 NW22      30.37R WCI  -7
WEBSTER CITY * MOSUNNY   14   7  73 NW29      30.38R HAZE    WCI  -7
IOWA FALLS *   PTSUNNY   14   9  79 NW25G33   30.37R HAZE    WCI  -5
$$

IAZ007>011-017>019-026>030-037>042-050>054-066-121700-
   NORTHEAST IOWA

CITY           SKY/WX    TMP DP  RH WIND       PRES   REMARKS
CEDAR RAPIDS   PTSUNNY   19  12  74 NW23      30.30R WCI   2
CHARLES CITY * MOSUNNY   12   5  73 NW23G32   30.33R WCI  -7
CLINTON *      PTSUNNY   21  13  71 NW18      30.26R WCI   6
DECORAH *      PTSUNNY   12   3  67 NW22G30   30.26R WCI  -7
DUBUQUE        PTSUNNY   17   9  70 NW15G30   30.23R WCI   2
MONTICELLO *   MOSUNNY   19  10  68 NW17G23   30.27R WCI   4
OELWEIN *      LGT SNOW  14   9  79 NW21      30.30R WCI  -4
WATERLOO       PTSUNNY   15   7  70 NW20G32   30.33R WCI  -2
$$

IAZ064-065-067-068-078-121700-
   EAST CENTRAL IOWA

CITY           SKY/WX    TMP DP  RH WIND       PRES   REMARKS
DAVENPORT      MOSUNNY   21  11  65 NW20      30.26S WCI   6
IOWA CITY      MOSUNNY   21  11  65 NW20G26   30.33R WCI   6
MT. PLEASANT * FLURRIES  25  18  74 NW18G24   30.32R WCI  11
MUSCATINE *    PTSUNNY   23  12  63 NW18      30.32R WCI   9
QUAD CITIES    MOSUNNY   23  12  62 NW14G23   30.26S WCI  11
$$

IAZ062-063-075>077-085>089-095>099-121700-
   SOUTHEAST IOWA

CITY           SKY/WX    TMP DP  RH WIND       PRES   REMARKS
BURLINGTON     LGT SNOW  23  18  81 NW12G20   30.28R WCI  12
FAIRFIELD *    CLOUDY    21  14  73 NW21G26   30.33R WCI   6
FORT MADISON * LGT SNOW  21  18  86 NW21G26   30.30R WCI   6
KEOKUK *       LGT SNOW  23  19  86 NW17G26   30.30R WCI   9
OSKALOOSA *    CLOUDY    19  14  79 NW20      30.36R WCI   4
CENTERVILLE *  PTSUNNY   21  16  79 NW18      30.36R WCI   6
OTTUMWA        LGT SNOW  20  14  77 NW24      30.36R WCI   3
WASHINGTON *   CLOUDY    19  14  79 NW21      30.34R WCI   3
$$

ABBREVIATIONS USED IN REMARKS
   TC - TEMPERATURES IN CELSIUS
  WCI - WIND CHILL INDEX
   HX - HEAT INDEX
  VSB - VISIBILITY
$$





USA.gov is the U.S. government's official web portal to all federal, state and local government web resources and services.